Location: Cran-Gévrier
(45.9039°N, 6.1012°E)
Time: 05:27:46
(UTC+00:00)

Cosmos 2285 Rocket - Pass Details

Date: 09 February 2023
Orbit: 971 x 998 km, 74.0° (Epoch: 29 March)

Event Time Altitude Azimuth Distance (km) Brightness Sun altitude
Rises 19:33:19 0° 339° (NNW) 3,688 7.4 -28.3°
Reaches altitude 10° 19:35:54 10° 342° (NNW) 2,733 6.6 -28.8°
Enters shadow 19:41:05 58° 12° (NNE) 1,129 4.2 -29.7°
